Regional Weather Roundup
Issued by NWS Charleston, SC

Current Version | Previous Version | Graphics & Text | Print | Product List | Glossary On
Versions: 1 2 3 4 5 6 7 8 9 10 11 12 13 14 15 16 17 18 19 20 21 22 23 24 25 26 27 28 29 30 31 32 33 34 35 36 37 38 39 40 41 42 43 44 45 46 47 48 49 50
000
ASUS42 KCHS 231925
RWRCHS

REGIONAL WEATHER ROUNDUP
NATIONAL WEATHER SERVICE CHARLESTON SC
300 PM EDT WED JUL 23 2014

NOTE: "FAIR" INDICATES FEW OR NO CLOUDS BELOW 12,000 FEET WITH NO
SIGNIFICANT WEATHER AND/OR OBSTRUCTIONS TO VISIBILITY.

NOT ALL STATIONS ARE QUALITY CONTROLLED BY THE NATIONAL
WEATHER SERVICE. USE DATA WITH CAUTION...ESPECIALLY
DEWPOINT OBSERVATIONS.

SCZ027-030-031-034>040-042>050-232000-
...SOUTH CAROLINA...

CITY           SKY/WX    TMP DP  RH WIND       PRES   REMARKS
N CHARLESTON   PTSUNNY   91  72  53 SE7       30.03F HX  98
WATERFRONT PRK NOT AVBL
FORT JOHNSON   NOT AVBL
MOUNT PLEASANT FAIR      88  77  70 S12       30.03F HX 100
JOHNS ISLAND   CLEAR     88  66  48 S13       30.03F HX  90
PINOPOLIS        N/A     90  75  62 CALM      29.97F HX 100
MONCKS CORNER    N/A     91  75  59 S5        30.02F HX 102
SUMMERVILLE    FAIR      91  72  52 CALM      30.03F HX  98
BEAUFORT MCAS  PTSUNNY   92  70  48 S5        30.03F HX  97
BEAUFORT ARPT  FAIR      88  77  70 S6        30.03F HX 100
HILTON HEAD IS MOSUNNY   88  79  74 SE5       30.06F HX 102
GEORGETOWN     NOT AVBL
WALTERBORO     PTCLDY    86  72  62 SE7       30.03F HX  92
ORANGEBURG     MOSUNNY   90  70  51 S10       30.02F HX  95
BARNWELL       MOCLDY    91  72  52 SW9       30.03F HX  98
AIKEN          MOCLDY    88  73  62 W5        30.07F HX  96
MANNING        FAIR      90  73  58 SW6       30.01F HX  98
KINGSTREE      NOT AVBL
COLUMBIA       MOSUNNY   92  70  48 S8        30.01F HX  97
SUMTER         SUNNY     89  75  62 VRB7      30.00F HX  99
FLORENCE       MOSUNNY   90  72  55 VRB6      30.01F HX  97
MYRTLE BEACH   MOSUNNY   88  73  62 S13       30.03  HX  96
N MYRTLE BEACH SUNNY     86  75  69 S13       30.02F HX  95

$$

GAZ063-065-086>088-099>101-113>116-118-119-134-136>141-150-232000-
...GEORGIA...

CITY           SKY/WX    TMP DP  RH WIND       PRES   REMARKS
SAVANNAH ARPT  PTSUNNY   91  71  51 S6        30.04F HX  97
HUNTER AAF     PTSUNNY   87  76  69 E8        30.02F HX  98
FORT STEWART   PTSUNNY   89  73  58 E5        30.03F HX  96
STATESBORO     NOT AVBL
SYLVANIA       PTCLDY    90  74  59 S5        30.04F HX  99
CLAXTON        FAIR      91  75  59 CALM      30.02F HX 102
THOMSON        MOSUNNY   88  77  69 W3        30.08F HX 101
AUGUSTA-BUSH   PTSUNNY   89  71  55 E6        30.02F HX  95
AUGUSTA-DANIEL PTSUNNY   88  70  55 VRB3      30.04F HX  93
SWAINSBORO     MOCLDY    91  75  59 SE5       30.04F HX 102
VIDALIA          N/A     90  72  55 CALM      30.04F HX  96
ALMA           MOSUNNY   92  68  45 VRB7      30.04F HX  96
WAYCROSS       MOSUNNY   96  73  46 SW3       30.03F HX 105
JESUP          NOT AVBL
BRUNSWICK      PTSUNNY   90  73  58 CALM      30.04F HX  98
SAINT SIMONS   MOSUNNY   87  74  64 SE12      30.05F HX  95

$$

SCZ027-028-034-036>038-045-046-048>050-GAZ119-141-232000-
...LAKE AND SUPPLEMENTAL COASTAL OBSERVATIONS...

STATION/POSITION TIME  TEMP    WIND        PRES    WAVE   SWELL
                       AIR SEA DIR/SP/G            HT/PER HT/PER/DIR
                 (UTC) (F)     (DEG/KT/KT) (MB)    (FT/S) (FT/S/D)
UPR LAKE MARION  NOT AVBL
WINYAH BAY       1900   85     140/ 10     1016.0F
LAKE MURRAY      1800   85     180/  8/  9 1016.3F
ACE BASIN NERRS  1900   88     170/  2     1018.0S
FORT PULASKI     1900   86     140/  6/ 10 1017.6F
SAPELO ISLAND    1900   93     130/  8     1018.0F

$$

ANZ835-935-AMZ111-154-330-350-352-354-374-450-454-472-232000-
...C-MAN AND BUOY OBSERVATIONS...

STATION/POSITION TIME  TEMP    WIND        PRES    WAVE   SWELL
                       AIR SEA DIR/SP/G            HT/PER HT/PER/DIR
                 (UTC) (F)     (DEG/KT/KT) (MB)    (FT/S) (FT/S/D)
FOLLY BEACH CMAN 1900   83     160/ 12/ 13 1017.8F
BUOY 41004       1900   81 84  180/  4/  6 1017.2F   3/ 6   3/ 6
BUOY 41008       1900   83 88  130/  6/  8 1017.8F   3/ 7   2/120/ 7
5E ST. MARYS GA  1900      87                N/A     2/ 6
FRYING PAN BUOY  NOT AVBL
BUOY 41025       1900          VRB 17/ 21  1016.0F   3/ 9   2/120/ 9
CAPE LOOKOUT NC  1900   81     180/ 11/ 12 1016.7R
BUOY 41002       1810   82 82  230/ 17/ 19 1020.1F   4/ 5   2/150/ 8
BUOY 41010       1900   81 83  220/ 16/ 21 1019.6S   4/ 6   2/110/ 8
BUOY 41012       NOT AVBL
ST AUGUSTINE FL  1900   82     110/  9/ 10 1018.5F
CAPERS NEARSHORE 1800   85     170/  8/ 10   N/A
FRIPP NEARSHORE  NOT AVBL


$$



USA.gov is the U.S. government's official web portal to all federal, state and local government web resources and services.